This demonstration page uses our WeatherBlox Daily Observations layout. Learn more.

Left ArrowRight Arrow

Hourly Observations for November 10, 2022

Temp ( °F °C ) Dew Point ( °F °C ) Humidity (%) Winds ( mph kmh ) Pressure ( in mb ) Visibility ( mi km ) Precip ( " mm )
12:53 am 00:53 Clear 66 18.9 61 16.1 84 84 S 20 31 29.83 1010 10 16 0.00 0.00
1:53 am 01:53 Partly Cloudy 65 18.3 61 16.1 87 87 S 17 28 29.82 1010 10 16 0.00 0.00
2:53 am 02:53 Mostly Cloudy 65 18.3 60 15.6 84 84 S 21 33 29.80 1009 10 16 0.00 0.00
3:53 am 03:53 Partly Cloudy 65 18.3 61 16.1 87 87 S 21 33 29.79 1009 10 16 0.00 0.00
4:53 am 04:53 Cloudy 65 18.3 61 16.1 87 87 S 13 20 29.80 1009 10 16 0.00 0.00
5:27 am 05:27 Cloudy 64 17.8 61 16.1 90 90 S 15 24 29.80 1009 10 16 0.00 0.00
5:53 am 05:53 Mostly Cloudy 64 17.8 60 15.6 87 87 S 16 26 29.78 1009 10 16 0.00 0.00
6:53 am 06:53 Mostly Cloudy 64 17.8 61 16.1 90 90 S 15 24 29.80 1009 10 16 0.00 0.00
7:53 am 07:53 Partly Cloudy 64 17.8 61 16.1 90 90 S 16 26 29.79 1009 10 16 0.00 0.00
8:53 am 08:53 Mostly Cloudy 67 19.4 61 16.1 81 81 S 16 26 29.82 1010 10 16 0.00 0.00
9:20 am 09:20 Cloudy 57 13.9 49 9.4 74 74 NNW 21 33 29.88 1012 10 16 0.00 0.00
9:53 am 09:53 Mostly Cloudy 49 9.4 41 5 74 74 NNW 23 37 29.91 1013 10 16 0.01 0.13
10:53 am 10:53 Mostly Cloudy 51 10.6 40 4.4 65 65 N 23 37 29.92 1013 10 16 0.00 0.00
11:53 am 11:53 Cloudy 50 10 37 2.8 61 61 N 18 30 29.92 1013 10 16 0.00 0.00
12:53 pm 12:53 Cloudy 52 11.1 36 2.2 54 54 N 16 26 29.91 1013 10 16 0.00 0.00
1:53 pm 13:53 Cloudy 51 10.6 35 1.7 54 54 N 18 30 29.91 1013 10 16 0.00 0.00
2:53 pm 14:53 Cloudy 49 9.4 35 1.7 59 59 N 15 24 29.91 1013 10 16 0.00 0.00
3:53 pm 15:53 Mostly Cloudy 49 9.4 33 0.6 54 54 N 20 31 29.92 1013 10 16 0.00 0.00
4:53 pm 16:53 Mostly Cloudy 50 10 33 0.6 52 52 N 16 26 29.92 1013 10 16 0.00 0.00
5:53 pm 17:53 Mostly Cloudy 49 9.4 34 1.1 56 56 N 16 26 29.92 1013 10 16 0.00 0.00
6:53 pm 18:53 Mostly Cloudy 50 10 33 0.6 52 52 N 14 22 29.93 1014 10 16 0.00 0.00
7:53 pm 19:53 Cloudy 50 10 31 -0.6 48 48 N 20 31 29.95 1014 10 16 0.00 0.00
8:53 pm 20:53 Mostly Cloudy 48 8.9 29 -1.7 47 47 N 24 39 29.98 1015 10 16 0.00 0.00
9:53 pm 21:53 Mostly Cloudy 45 7.2 27 -2.8 49 49 N 24 39 30.02 1017 10 16 0.00 0.00
10:53 pm 22:53 Mostly Clear 43 6.1 26 -3.3 51 51 NNE 23 37 30.05 1018 10 16 0.00 0.00
11:53 pm 23:53 Mostly Cloudy 41 5 27 -2.8 57 57 N 26 43 30.05 1018 10 16 0.00 0.00

Powered by AerisWeather